Wind_Speed
13 14 15 15 16 17 17 17 16 15 14 15 16 16 15 14 13 12 10 9 9 10 11 10 10 11 11 11 10 11 12 13 13 13 12 11 10 8 7 6 5 5 5 6 7 7 6 5 3 3 4 6 7 9 14 19 23 26 28 28 29 28 28 28 28 28 28 29 30
14 14 15 16 17 18 18 18 18 17 15 16 17 18 18 17 15 14 13 12 12 12 12 11 11 11 11 11 11 11 12 13 13 13 12 11 9 8 7 7 6 6 6 7 9 9 9 8 7 5 5 5 7 8 9 10 14 19 23 27 28 29 29 28 28 27 27 28 28
15 15 16 17 17 18 19 19 19 18 17 17 18 19 19 19 17 16 15 15 14 14 13 12 11 11 11 11 11 11 12 12 13 12 11 9 8 7 7 7 7 6 7 8 9 10 10 10 9 8 7 6 6 8 10 11 12 13 17 21 25 27 29 29 29 29 28 28 28
17 16 16 17 17 18 19 20 20 20 19 17 17 18 19 20 19 18 17 16 15 15 14 13 12 11 11 11 11 11 12 12 12 11 10 8 8 7 7 7 7 7 8 9 10 11 11 11 10 10 9 8 7 7 8 9 11 13 14 17 21 25 28 30 30 30 30 29 29
18 18 17 17 18 19 20 21 21 21 20 19 18 18 19 20 20 19 18 17 16 15 14 13 12 12 12 12 12 12 13 13 13 12 11 10 9 9 8 8 8 8 9 10 11 11 11 11 11 11 11 10 10 9 8 7 7 9 12 13 17 21 25 28 29 30 30 29 29
20 20 19 18 18 19 20 21 22 22 22 21 19 18 18 19 20 20 19 18 17 16 14 14 13 13 13 13 13 13 14 14 15 14 13 12 11 11 10 9 9 8 9 10 11 11 11 11 11 11 11 11 11 10 8 5 3 5 7 9 11 14 17 20 23 26 28 28 28
22 21 21 19 19 19 20 21 22 22 22 22 21 19 18 19 19 20 20 19 18 17 16 15 14 14 14 13 13 13 14 15 16 16 15 14 12 11 10 9 9 8 9 10 11 11 12 12 11 11 11 11 11 10 8 5 2 1 2 4 6 8 10 12 15 18 22 25 26
23 22 21 20 19 19 19 20 21 22 22 22 22 20 19 18 19 20 20 19 19 19 18 16 15 14 13 12 12 13 14 15 17 17 17 15 13 12 11 10 9 8 9 10 11 11 11 12 11 11 12 12 11 10 8 5 3 3 2 1 1 3 6 8 10 12 15 18 20
23 22 22 21 20 19 19 20 20 21 21 21 21 21 19 17 17 18 19 19 19 19 19 18 16 14 13 12 12 12 13 15 17 18 17 16 14 13 12 11 10 9 9 9 11 11 12 12 11 11 12 13 12 11 8 6 5 5 5 4 3 2 1 4 6 8 10 11 12
23 22 21 20 19 19 19 19 20 20 20 20 20 19 18 16 15 16 18 19 20 20 20 20 18 16 13 12 11 12 13 14 16 18 18 17 15 14 13 13 12 10 9 9 10 11 12 12 12 12 13 13 13 12 10 8 7 7 6 5 5 4 3 2 2 5 7 8 6
22 22 21 19 18 18 18 18 18 19 19 18 17 15 14 12 12 14 16 18 20 20 21 21 19 17 15 13 12 11 12 14 16 18 18 18 16 15 15 15 15 12 10 10 10 10 11 12 13 13 13 14 14 14 12 10 9 9 8 8 7 6 5 4 4 4 6 7 5
21 21 19 18 17 16 16 16 16 16 16 15 13 10 8 8 9 11 14 17 18 18 19 20 20 18 15 13 12 12 12 13 15 17 19 19 18 17 16 17 18 15 12 10 10 10 10 11 12 13 14 15 15 15 14 13 11 11 10 9 9 8 6 5 4 4 5 6 4
20 19 18 16 14 14 13 12 12 12 12 11 9 6 4 5 8 11 13 16 16 17 18 20 20 18 15 13 12 12 12 12 13 16 18 20 20 19 19 19 20 18 14 11 10 9 9 10 11 12 13 15 15 16 15 14 13 13 12 11 10 9 8 6 5 4 4 5 5
17 17 16 14 12 11 10 10 9 9 10 9 8 7 6 7 9 11 12 15 16 17 19 20 19 17 14 13 13 12 12 11 12 13 16 19 21 21 21 21 22 21 17 12 11 9 9 9 9 10 11 13 14 15 16 15 15 14 13 13 11 10 9 8 6 5 4 4 5
16 15 14 12 10 9 9 9 9 9 9 9 10 10 10 10 11 12 13 15 17 18 19 19 18 16 14 13 13 13 13 12 12 12 13 15 17 19 20 20 21 20 18 14 11 10 10 10 10 9 9 10 11 13 15 16 15 15 14 14 13 11 10 9 9 8 7 6 6
14 13 12 11 9 9 8 9 9 9 9 10 11 12 13 13 14 15 16 17 18 19 19 19 17 16 14 14 14 14 14 14 13 13 12 12 12 11 11 12 15 18 18 16 12 10 10 11 11 10 9 9 9 11 12 14 15 15 14 14 13 12 11 11 10 10 10 8 7
12 11 10 9 9 9 9 9 10 10 10 10 12 13 14 14 15 16 17 18 19 19 19 19 17 16 14 14 14 14 15 15 15 15 14 12 9 7 5 5 8 13 17 18 14 12 11 12 13 12 11 10 9 9 10 11 13 14 15 14 13 12 12 11 10 11 11 10 8
11 10 10 9 9 9 10 10 10 10 10 11 12 12 13 13 14 15 16 17 18 19 18 18 17 16 15 14 14 14 15 15 16 16 16 15 13 10 7 4 5 8 13 18 16 14 12 13 14 14 14 12 11 10 10 10 11 12 13 13 13 12 11 10 9 9 9 8 6
12 12 11 10 10 10 10 10 10 10 10 11 11 11 10 9 10 12 14 16 17 18 18 17 16 16 15 15 15 15 14 15 15 16 17 17 18 16 14 10 7 7 9 13 15 15 13 13 14 16 16 15 14 13 11 11 10 10 10 11 12 12 11 9 7 6 5 3 3
12 12 12 10 10 11 11 10 9 9 10 11 11 10 9 8 7 8 11 14 16 17 17 16 16 16 16 15 15 15 14 14 14 15 17 18 19 20 20 17 12 8 6 6 9 12 12 13 14 16 17 17 17 16 15 13 12 11 10 10 11 11 11 9 7 5 4 3 2
12 13 12 11 11 11 12 10 9 8 9 10 10 10 9 8 7 7 8 11 14 16 16 16 16 16 16 16 15 15 14 14 14 15 16 17 19 21 22 22 17 11 6 2 2 5 8 10 12 14 16 18 18 18 18 17 15 14 12 11 11 11 11 10 8 7 6 5 3
12 13 13 12 11 11 10 9 7 7 8 8 9 9 9 8 7 7 6 9 12 15 16 16 16 16 16 16 16 16 15 15 15 15 16 16 17 19 21 22 20 15 10 5 3 1 2 5 7 10 13 15 18 19 19 19 18 17 15 14 13 13 12 11 10 9 8 7 6
12 13 13 12 10 9 9 7 6 7 7 8 8 9 9 8 7 6 5 6 9 13 15 16 15 15 16 16 16 16 16 16 16 16 16 16 17 18 19 19 18 16 13 9 5 4 3 3 4 6 8 11 14 16 18 19 19 18 17 17 16 15 14 13 12 11 10 9 8
11 13 13 11 9 8 7 7 6 7 7 8 8 8 8 7 6 5 5 5 7 10 13 15 15 15 15 16 16 16 16 16 16 16 16 16 17 17 17 17 15 14 14 13 9 5 4 5 5 5 6 7 9 11 14 16 17 17 17 17 17 16 15 15 14 13 12 11 10
11 12 12 10 8 7 7 7 7 6 7 7 7 7 6 5 5 5 5 5 6 8 11 13 14 15 15 15 15 15 16 15 15 16 16 16 17 17 17 16 14 13 13 13 13 10 7 5 6 6 6 6 6 8 10 13 14 15 15 15 15 15 14 14 13 12 11 9 9
9 10 10 8 6 5 6 6 6 6 6 6 6 5 4 4 4 4 4 5 6 7 9 11 13 13 14 14 14 14 14 14 14 14 15 16 16 17 17 16 15 13 11 12 14 14 12 9 7 7 8 8 7 7 8 10 12 13 14 13 13 12 11 11 10 10 9 8 7
7 9 9 7 4 2 3 5 5 6 6 5 5 4 4 4 4 4 4 5 6 6 7 9 10 11 12 13 13 13 13 13 13 14 14 15 16 16 16 16 14 13 11 11 13 14 15 14 11 10 10 10 10 9 8 9 10 11 12 11 10 10 9 9 9 9 9 8 7
5 7 8 7 5 3 2 3 3 3 3 3 4 4 4 4 3 3 4 5 5 6 7 7 9 10 11 12 12 12 13 13 13 14 14 15 15 15 15 15 14 12 11 11 12 13 15 15 14 13 13 13 12 11 9 9 9 9 9 9 8 8 8 8 9 9 9 9 8
2 4 6 7 7 6 5 5 5 3 2 1 0 1 2 3 3 3 4 4 5 5 6 7 9 10 11 11 12 12 12 13 14 14 14 14 15 15 15 15 14 13 12 11 12 12 14 14 15 14 13 14 13 12 11 10 9 9 8 7 6 6 6 7 8 8 9 9 9
1 1 3 5 6 6 6 7 7 6 6 5 4 4 2 2 2 2 3 4 4 5 6 8 8 9 10 11 11 12 12 13 14 14 15 15 15 15 15 15 15 15 13 12 12 12 12 13 14 14 14 14 13 12 12 12 12 11 10 8 7 6 6 6 7 7 8 9 10
4 2 1 2 4 4 5 5 6 6 6 6 7 6 6 4 3 1 2 2 3 5 6 7 8 8 9 10 11 12 12 13 14 15 15 16 16 16 16 16 16 16 14 13 12 12 12 12 13 14 14 13 11 11 12 13 14 14 13 12 10 9 8 8 8 8 8 9 10
6 5 3 2 1 2 2 3 3 3 4 4 5 6 6 6 4 3 2 1 2 3 5 6 7 8 9 10 10 11 12 13 14 15 16 16 17 17 17 17 18 17 16 15 14 13 13 13 14 14 14 13 11 11 12 13 14 15 16 16 14 13 11 11 11 10 10 10 10
8 7 6 4 2 1 0 1 1 1 2 2 3 4 4 4 4 3 2 1 1 2 3 4 6 7 8 8 9 10 11 12 13 14 15 16 16 17 17 18 18 18 17 17 16 16 15 15 15 15 15 14 14 13 13 13 14 16 18 19 18 16 15 14 13 13 13 13 13
9 8 7 5 4 2 2 2 2 1 0 1 2 3 3 3 3 2 1 1 1 2 3 4 5 6 7 8 8 9 10 11 11 12 13 14 15 16 16 17 18 18 18 18 18 18 18 17 17 17 17 17 17 17 16 16 16 17 19 20 20 19 17 16 16 16 16 16 15
8 8 7 6 5 4 3 3 3 2 1 1 1 2 2 2 2 1 1 0 1 2 3 4 4 5 6 7 8 8 9 10 10 11 12 12 13 14 15 15 16 17 17 18 18 19 19 19 19 19 19 19 20 20 20 19 19 20 21 22 22 21 20 19 18 18 18 18 17
7 7 7 7 6 5 5 4 4 3 3 2 2 1 1 1 1 1 0 1 1 2 3 4 4 5 6 7 8 8 9 9 10 10 11 11 12 12 13 13 14 15 15 16 17 17 18 18 18 18 19 19 20 20 20 20 20 21 21 22 22 21 21 21 20 20 19 19 19
7 7 7 6 6 6 6 5 5 4 4 4 3 2 1 1 1 1 1 2 2 3 3 4 5 5 6 7 8 8 9 9 9 10 10 10 11 11 11 12 12 13 13 14 14 15 15 16 16 16 16 16 17 17 17 18 18 19 19 20 20 20 20 21 20 20 20 20 19
7 7 6 6 6 6 6 6 5 5 5 5 4 2 2 1 1 2 2 2 3 3 4 4 5 5 6 6 7 8 8 9 9 9 9 10 10 10 10 10 11 12 13 13 13 13 13 13 13 13 13 13 13 14 14 14 15 15 16 16 17 18 18 19 19 19 19 19 18
7 7 6 6 7 7 7 7 6 6 6 5 4 3 2 2 2 2 2 3 3 3 4 4 5 5 5 5 6 6 7 8 8 8 9 9 9 10 10 10 11 11 12 11 11 11 11 11 11 11 11 11 12 12 12 13 13 13 14 14 15 16 16 17 17 17 17 17 17
6 6 6 6 7 7 7 7 7 7 6 6 5 4 3 2 2 2 2 3 3 3 4 4 5 5 5 5 5 6 6 6 7 7 8 8 9 9 10 10 10 10 10 10 9 9 10 10 10 10 10 10 11 12 12 12 13 13 14 14 15 15 15 15 15 15 15 15 15
6 6 6 6 6 6 6 6 7 6 6 6 5 4 3 2 2 2 3 3 3 4 4 5 5 5 5 5 5 5 5 6 6 7 7 8 8 8 8 8 8 9 9 9 9 9 9 10 10 10 10 10 11 11 12 12 13 13 14 14 15 15 15 15 15 15 15 15 16
Wind_Direction
311 302 295 288 283 278 274 269 264 256 245 235 229 226 223 219 216 211 208 211 229 239 238 231 230 232 234 234 232 230 231 237 245 255 267 277 282 277 267 260 256 251 248 249 252 255 259 264 275 303 317 313 292 265 248 241 236 234 233 232 231 231 230 230 231 233 236 238 239
319 309 300 292 285 281 277 273 268 260 249 239 233 230 228 224 219 212 209 210 220 228 231 230 230 231 234 234 234 233 232 234 241 250 260 270 274 270 263 260 259 253 245 243 245 248 253 257 259 266 282 303 315 316 306 285 263 249 240 235 232 231 231 231 232 233 236 239 241
324 316 306 297 289 283 279 275 270 264 255 245 238 233 230 228 223 216 212 213 219 226 229 229 229 231 233 235 235 235 235 234 236 242 251 260 260 254 252 258 260 255 245 239 240 243 246 250 253 254 256 263 281 297 306 309 303 286 266 252 243 238 235 235 235 237 239 242 244
326 321 312 301 292 285 280 275 271 266 260 252 243 237 233 230 227 222 219 219 222 225 227 230 231 232 234 236 236 237 237 236 231 230 233 239 239 240 246 256 257 250 240 234 235 237 239 242 245 248 248 248 250 260 275 291 302 302 291 273 258 249 243 240 240 241 242 243 245
325 322 316 306 296 287 280 275 271 268 263 257 248 241 236 232 229 227 226 226 226 227 227 229 230 232 235 237 239 239 239 237 229 220 215 221 229 240 251 258 256 246 233 227 228 231 233 236 240 243 245 244 243 242 248 266 292 302 298 286 268 255 248 244 242 242 242 242 242
322 321 317 310 300 290 283 277 273 269 265 261 254 246 239 234 230 228 228 230 232 232 231 229 229 231 234 237 240 240 238 236 229 219 213 217 228 240 250 254 252 243 231 225 224 226 228 231 235 238 239 238 236 235 234 239 275 306 303 291 274 257 247 243 240 239 237 237 237
320 319 316 311 302 293 284 278 273 270 267 263 259 252 244 236 230 227 227 229 233 236 237 234 231 231 233 237 239 239 237 233 229 224 221 224 231 236 241 245 244 237 228 223 223 224 226 228 230 232 232 231 227 224 220 213 201 314 315 297 279 261 248 240 237 235 233 232 232
318 317 314 310 303 295 286 279 274 271 268 265 262 257 250 240 233 227 224 225 230 236 240 240 237 234 233 235 237 237 235 231 229 228 229 232 232 232 232 235 234 228 222 220 221 223 225 226 226 226 225 223 220 215 208 192 166 140 121 100 287 267 259 251 245 238 232 230 229
315 314 312 308 303 295 287 279 274 271 269 266 264 260 255 247 237 229 223 222 227 234 240 243 241 238 235 235 236 236 234 231 229 229 231 232 230 227 227 229 229 222 215 214 218 223 226 227 226 225 222 219 216 211 203 185 164 151 142 132 122 115 253 263 256 242 229 222 221
311 311 309 306 301 295 288 280 273 269 267 265 264 262 260 254 243 231 223 222 226 233 239 243 243 240 237 236 237 237 235 232 230 230 229 228 225 223 224 227 227 219 207 205 213 222 227 230 229 227 224 221 217 212 203 188 172 166 164 155 142 129 121 129 206 221 213 201 191
309 308 306 303 299 294 286 279 272 267 265 264 264 266 266 261 248 233 223 220 224 233 240 242 242 241 240 238 240 241 239 236 233 231 229 225 221 219 221 227 228 221 205 197 207 218 227 231 232 231 229 227 223 218 209 195 182 176 175 171 161 152 144 136 146 175 192 192 179
307 306 305 302 298 292 285 277 271 267 265 265 267 271 277 275 258 237 223 217 222 231 238 239 239 239 240 240 242 243 242 240 237 234 230 225 219 217 220 227 232 228 213 196 200 212 223 230 233 233 233 232 230 225 216 204 191 184 181 179 175 171 166 156 151 161 178 191 189
308 308 306 304 298 291 284 276 272 269 269 269 267 264 264 268 259 242 225 215 217 226 233 234 235 237 239 240 242 243 244 244 242 239 234 229 222 219 223 231 238 236 223 200 198 206 218 225 229 231 232 232 232 229 222 212 199 191 187 186 184 183 178 169 164 166 177 189 198
311 311 311 309 301 291 281 276 274 274 274 270 257 238 223 227 239 238 227 216 216 223 229 232 234 235 237 238 240 241 242 243 244 243 239 234 229 226 229 236 243 240 225 203 197 204 214 220 223 225 228 230 230 229 226 219 208 198 191 188 188 187 181 173 172 177 183 188 199
313 314 315 313 303 289 277 272 274 276 273 265 252 235 221 216 223 228 226 219 218 221 226 230 232 233 234 235 237 237 238 238 241 242 240 237 233 230 232 239 244 238 222 201 197 206 217 218 217 218 221 225 228 228 227 224 218 210 201 194 189 185 179 173 174 177 178 176 185
313 313 314 311 302 289 278 274 276 275 270 260 255 245 232 223 222 223 223 220 219 220 223 226 229 229 229 230 232 234 235 235 236 237 237 235 232 230 231 237 242 233 218 201 199 209 220 221 217 214 216 220 224 226 227 227 225 222 216 208 200 191 183 177 177 174 168 163 168
317 313 310 307 299 289 281 278 278 275 266 256 254 252 246 237 232 228 226 223 221 220 221 223 224 223 223 225 228 232 234 235 236 237 236 235 233 234 236 241 245 234 221 208 204 209 219 222 219 216 215 218 221 223 225 227 228 228 226 223 216 205 194 185 181 173 164 157 164
332 325 318 310 300 291 284 280 277 272 262 252 250 252 254 249 243 237 232 228 223 221 220 220 220 219 219 220 225 229 234 236 238 239 239 238 238 241 248 263 276 255 235 220 212 212 218 221 220 218 218 219 221 222 224 226 228 229 229 228 224 216 206 196 188 177 166 157 167
342 337 328 317 306 297 288 280 273 265 255 247 246 251 258 260 253 244 236 231 226 222 219 218 217 216 217 219 223 227 232 237 240 242 243 242 241 242 245 252 278 289 263 231 217 213 216 219 220 220 220 222 223 224 225 226 228 228 228 227 223 218 210 203 196 190 184 174 183
341 339 331 320 308 297 288 278 267 256 248 243 243 249 261 273 270 254 239 231 225 221 217 216 215 215 217 220 223 226 231 236 241 245 247 247 245 244 244 246 258 285 294 244 212 208 212 217 219 221 223 225 226 228 228 228 228 227 225 222 217 212 207 202 200 201 207 220 221
336 336 332 322 308 297 288 276 261 252 249 243 242 247 258 275 282 270 247 230 223 219 216 214 214 216 218 221 223 227 231 235 241 247 250 252 252 250 248 247 250 262 287 319 192 198 209 216 220 223 226 228 230 231 232 232 231 229 225 220 214 209 206 204 204 206 210 214 212
332 333 332 325 312 300 289 275 256 248 249 247 243 246 253 265 279 280 260 234 222 217 215 214 215 216 219 221 224 227 231 235 239 245 251 255 257 257 254 252 249 249 257 295 346 2 221 227 230 233 233 234 234 234 234 235 235 232 227 222 217 213 210 211 214 217 219 219 217
331 332 331 326 315 302 288 272 253 245 246 247 245 245 247 253 261 268 263 246 227 219 216 216 216 218 219 222 224 228 232 235 238 242 247 254 259 261 260 256 250 243 241 254 287 333 347 318 281 265 255 248 242 238 236 235 235 233 230 226 222 218 217 219 224 229 233 234 231
333 334 333 327 314 297 281 264 250 244 245 246 247 247 245 243 246 250 251 248 236 226 221 220 220 221 222 223 225 228 232 236 239 242 246 251 257 261 261 259 251 240 233 238 249 273 318 336 326 309 292 278 262 248 239 234 232 230 229 227 224 223 222 224 228 234 239 241 238
337 339 337 331 315 292 272 255 244 239 241 245 252 255 252 243 238 239 240 238 236 232 228 226 225 225 225 225 226 229 232 235 239 243 246 250 254 258 260 258 254 243 232 231 237 245 262 297 322 327 323 313 298 274 253 238 230 226 224 223 222 221 221 222 225 229 233 236 233
344 348 347 340 320 288 261 243 233 232 236 242 252 261 262 250 237 236 240 238 236 233 231 230 230 230 229 229 229 230 232 234 237 241 245 248 252 255 257 257 255 249 238 230 233 238 246 258 281 308 325 332 327 308 280 255 237 226 220 217 216 215 215 213 212 213 216 219 217
356 2 2 359 347 301 239 220 218 221 228 234 241 250 257 256 250 245 243 242 239 236 233 232 232 233 233 233 231 231 231 233 235 238 242 245 249 252 254 255 254 252 246 237 234 237 243 250 259 277 298 314 321 320 305 281 255 236 223 215 211 210 209 206 203 200 200 203 207
11 19 20 23 29 47 102 153 177 196 214 225 229 233 235 236 240 242 242 241 239 237 235 232 233 234 234 234 232 231 230 232 234 236 238 242 245 248 251 252 251 249 246 242 238 239 243 248 255 265 277 289 300 307 308 299 278 256 237 223 214 211 209 207 204 202 200 200 204
25 33 33 33 39 51 68 83 92 94 90 86 203 218 212 206 213 224 233 236 235 233 230 228 229 230 231 231 231 231 231 231 232 234 237 239 242 245 247 249 248 247 245 244 242 242 244 249 255 261 268 276 281 287 293 296 290 278 262 245 230 222 218 216 214 211 208 205 206
208 59 42 33 35 44 57 68 74 75 71 65 62 64 78 124 174 201 217 222 225 224 223 222 224 225 225 226 228 230 231 232 233 234 236 237 240 243 245 247 247 247 246 244 244 244 247 251 256 260 263 266 266 268 272 280 284 283 276 267 256 243 234 232 230 226 222 218 214
215 206 176 24 27 36 50 63 70 71 67 63 59 58 59 62 73 108 179 205 213 215 216 218 219 220 220 221 223 226 230 232 234 235 235 236 237 240 242 245 246 246 245 244 244 246 248 252 255 258 258 256 253 252 254 261 271 276 276 271 264 255 247 243 244 244 241 236 229
219 218 219 234 349 28 47 68 76 73 64 55 49 46 46 49 53 62 83 147 196 208 213 214 215 216 218 219 221 224 228 231 233 234 235 235 235 236 238 241 243 244 244 244 244 244 246 248 250 253 253 251 246 242 242 245 255 264 270 269 264 256 248 244 244 246 248 247 242
220 222 225 231 242 255 99 115 111 92 62 40 32 29 31 35 38 45 60 93 161 196 208 212 213 214 216 219 221 224 227 229 231 233 234 233 233 233 234 236 238 240 242 243 244 244 244 243 244 246 249 249 247 242 238 238 243 253 262 265 262 254 246 241 240 242 244 246 246
220 223 229 236 239 231 207 179 163 151 91 8 12 15 18 20 24 26 38 90 160 189 202 208 210 211 212 215 218 221 224 227 229 231 232 233 232 232 232 233 235 237 240 243 244 245 245 244 243 244 246 248 248 247 244 241 243 249 257 261 261 254 244 238 236 238 239 241 243
220 225 230 236 238 229 210 193 183 183 206 255 314 356 7 8 8 5 8 167 186 196 203 208 211 212 214 215 216 217 219 222 225 227 229 231 232 233 233 233 235 237 239 242 244 245 246 246 246 246 246 248 249 250 250 248 247 250 255 259 259 254 246 239 235 235 235 237 239
217 224 231 234 231 221 206 194 188 191 207 225 245 286 340 349 345 335 260 205 209 211 210 210 212 213 214 214 214 214 214 216 218 221 225 229 231 233 235 236 238 240 242 243 244 245 246 246 246 246 247 248 249 250 251 249 248 249 252 255 255 251 246 239 237 235 235 234 235
211 217 225 227 219 206 195 190 190 197 208 218 227 236 256 288 289 254 228 221 227 227 223 219 216 215 215 214 214 213 215 216 217 219 222 226 229 232 235 238 242 245 247 247 246 245 244 243 242 243 243 244 245 246 245 244 243 244 245 247 248 246 243 240 239 238 236 233 231
206 210 214 211 198 187 182 184 191 201 210 216 219 222 227 232 233 228 221 224 235 239 237 232 228 224 222 222 222 222 223 223 222 221 221 224 226 229 233 237 243 247 248 247 246 244 241 238 236 236 236 237 237 237 235 234 233 234 235 237 238 240 240 241 241 239 236 232 229
205 206 205 199 187 179 178 183 194 204 211 215 219 221 223 223 221 216 215 218 228 237 240 241 237 234 233 234 235 235 235 234 233 231 229 228 229 230 231 232 236 239 241 240 240 238 236 233 230 229 228 227 228 228 226 224 223 224 226 228 230 233 236 238 240 238 236 232 229
206 204 201 195 188 184 184 190 198 205 210 216 221 225 222 217 215 211 208 212 217 225 231 235 237 237 239 241 242 243 244 246 246 245 242 238 237 234 231 229 229 230 229 228 228 229 229 229 227 225 222 221 220 221 221 220 219 220 222 225 227 229 232 235 237 236 235 234 232
209 206 201 197 195 195 198 202 207 210 212 217 222 224 222 218 220 218 217 218 219 222 225 229 232 235 238 239 241 244 247 250 252 253 252 249 244 240 234 229 226 224 221 219 218 220 222 222 222 221 220 218 218 217 218 220 220 221 223 225 227 228 230 232 233 234 234 235 234
Height
1433 1433 1433 1432 1432 1432 1432 1432 1433 1433 1434 1434 1435 1436 1436 1436 1437 1438 1439 1439 1440 1440 1440 1441 1441 1442 1443 1443 1444 1444 1445 1445 1445 1445 1446 1446 1447 1446 1446 1446 1447 1447 1448 1448 1448 1448 1448 1448 1448 1448 1448 1449 1449 1449 1450 1450 1451 1451 1452 1453 1454 1454 1455 1455 1456 1457 1458 1458 1459
1433 1432 1432 1432 1431 1431 1431 1431 1431 1432 1433 1433 1434 1434 1435 1435 1436 1436 1437 1438 1438 1439 1439 1440 1440 1441 1441 1442 1443 1443 1444 1444 1444 1444 1445 1445 1446 1445 1445 1445 1446 1447 1447 1448 1448 1448 1448 1447 1447 1447 1447 1448 1449 1449 1449 1449 1450 1450 1451 1452 1452 1453 1453 1454 1454 1455 1456 1457 1457
1432 1431 1431 1431 1430 1430 1430 1430 1430 1430 1431 1432 1433 1433 1434 1434 1434 1435 1436 1436 1437 1437 1438 1439 1439 1440 1440 1441 1441 1442 1443 1443 1444 1444 1444 1444 1444 1444 1444 1445 1445 1446 1447 1447 1447 1447 1447 1447 1447 1447 1447 1447 1448 1448 1449 1449 1449 1450 1450 1450 1451 1451 1452 1452 1453 1453 1454 1455 1455
1431 1430 1430 1430 1429 1429 1429 1429 1429 1429 1430 1431 1431 1432 1432 1433 1434 1434 1434 1435 1436 1436 1437 1438 1438 1439 1439 1439 1440 1441 1442 1442 1443 1443 1443 1444 1444 1444 1444 1444 1445 1446 1446 1447 1447 1446 1446 1447 1447 1447 1447 1447 1448 1448 1448 1449 1449 1449 1449 1449 1450 1450 1450 1451 1451 1452 1452 1453 1454
1429 1429 1429 1429 1428 1428 1428 1428 1428 1428 1429 1429 1430 1430 1431 1432 1432 1433 1434 1434 1435 1435 1436 1437 1437 1437 1438 1439 1439 1440 1441 1441 1442 1442 1442 1443 1443 1443 1444 1444 1445 1445 1446 1446 1446 1446 1446 1446 1446 1447 1447 1447 1447 1448 1448 1448 1449 1449 1448 1448 1448 1448 1449 1449 1449 1450 1450 1451 1452
1428 1428 1428 1428 1428 1427 1427 1427 1427 1427 1427 1428 1428 1429 1430 1430 1431 1432 1433 1433 1434 1434 1435 1436 1436 1436 1437 1438 1438 1439 1439 1440 1441 1441 1442 1442 1443 1443 1444 1444 1444 1444 1445 1445 1445 1445 1445 1445 1446 1446 1447 1447 1447 1448 1448 1448 1448 1448 1448 1447 1447 1447 1447 1447 1447 1448 1449 1449 1450
1427 1427 1427 1427 1426 1426 1426 1425 1426 1426 1426 1426 1427 1427 1428 1429 1430 1431 1431 1432 1433 1434 1434 1435 1435 1435 1436 1437 1437 1438 1439 1439 1440 1440 1441 1441 1442 1443 1443 1443 1444 1444 1444 1444 1444 1444 1444 1445 1445 1446 1447 1447 1447 1447 1447 1447 1448 1448 1448 1447 1446 1446 1446 1446 1446 1447 1447 1448 1449
1425 1425 1425 1425 1425 1425 1425 1424 1424 1424 1425 1425 1425 1426 1427 1428 1429 1430 1431 1432 1432 1433 1434 1434 1434 1435 1435 1436 1436 1437 1437 1438 1439 1439 1440 1441 1442 1442 1442 1443 1443 1443 1444 1444 1444 1444 1444 1444 1445 1446 1446 1447 1447 1447 1447 1447 1447 1447 1447 1447 1446 1446 1445 1445 1445 1446 1446 1446 1447
1424 1424 1424 1424 1424 1424 1424 1423 1423 1423 1424 1424 1424 1425 1426 1427 1428 1429 1430 1431 1432 1433 1433 1433 1434 1434 1435 1435 1436 1436 1436 1437 1438 1439 1439 1440 1441 1441 1442 1442 1443 1443 1443 1443 1444 1444 1444 1444 1445 1445 1446 1446 1447 1447 1447 1447 1447 1447 1447 1447 1446 1446 1445 1445 1444 1445 1445 1445 1446
1424 1423 1423 1423 1423 1422 1422 1422 1422 1422 1422 1423 1423 1424 1425 1426 1427 1428 1429 1430 1431 1432 1432 1433 1433 1434 1434 1435 1435 1435 1436 1436 1437 1438 1439 1439 1440 1441 1441 1441 1442 1443 1443 1443 1443 1444 1444 1444 1445 1445 1446 1446 1446 1446 1447 1447 1447 1447 1447 1446 1446 1445 1445 1444 1444 1444 1444 1444 1445
1423 1422 1422 1422 1421 1421 1421 1421 1421 1421 1421 1422 1423 1424 1424 1425 1426 1427 1429 1429 1431 1431 1431 1432 1432 1433 1434 1434 1435 1435 1435 1435 1436 1437 1438 1439 1439 1440 1440 1441 1441 1442 1442 1443 1443 1443 1444 1444 1445 1445 1445 1446 1446 1446 1446 1446 1446 1446 1446 1446 1445 1445 1445 1444 1444 1443 1443 1444 1444
1422 1422 1421 1421 1420 1420 1419 1419 1419 1420 1420 1421 1422 1423 1424 1425 1425 1426 1427 1429 1430 1430 1431 1431 1432 1433 1433 1434 1434 1435 1435 1435 1435 1436 1437 1438 1439 1439 1439 1440 1441 1441 1442 1442 1443 1443 1444 1444 1444 1445 1445 1445 1446 1446 1446 1446 1446 1446 1445 1445 1445 1445 1444 1444 1443 1443 1443 1443 1443
1421 1421 1420 1420 1419 1419 1419 1419 1419 1419 1420 1420 1421 1422 1423 1424 1425 1425 1426 1427 1429 1429 1429 1430 1431 1432 1433 1434 1434 1434 1435 1435 1435 1436 1436 1437 1438 1439 1439 1439 1440 1441 1442 1442 1442 1443 1443 1444 1444 1444 1444 1445 1445 1446 1446 1446 1445 1445 1445 1445 1444 1444 1444 1444 1443 1443 1442 1442 1443
1421 1420 1419 1419 1419 1418 1418 1418 1419 1419 1419 1420 1420 1421 1422 1423 1424 1424 1425 1426 1427 1428 1428 1429 1431 1432 1433 1434 1434 1434 1434 1435 1435 1436 1436 1437 1438 1438 1439 1439 1439 1440 1441 1441 1442 1442 1443 1444 1444 1444 1444 1444 1445 1445 1445 1445 1445 1445 1444 1444 1444 1444 1444 1443 1443 1443 1442 1442 1441
1420 1419 1419 1419 1418 1418 1418 1418 1419 1419 1419 1419 1419 1420 1420 1421 1422 1423 1424 1425 1426 1426 1427 1429 1430 1431 1432 1433 1434 1434 1434 1435 1435 1436 1436 1436 1437 1438 1438 1439 1439 1439 1440 1441 1441 1442 1443 1443 1444 1444 1444 1444 1444 1444 1445 1445 1445 1445 1444 1444 1444 1444 1444 1443 1443 1443 1442 1441 1441
1419 1419 1419 1419 1418 1418 1418 1418 1418 1419 1419 1419 1419 1419 1419 1419 1420 1421 1422 1423 1424 1425 1426 1428 1429 1430 1432 1432 1433 1433 1434 1434 1435 1435 1436 1436 1437 1437 1437 1438 1438 1439 1439 1440 1441 1441 1442 1443 1443 1444 1444 1444 1444 1444 1444 1444 1445 1445 1445 1444 1444 1444 1443 1443 1443 1443 1442 1441 1440
1419 1419 1418 1418 1418 1418 1418 1418 1418 1418 1418 1419 1419 1418 1419 1419 1419 1420 1420 1421 1422 1423 1425 1426 1428 1429 1431 1431 1432 1433 1433 1434 1434 1435 1435 1436 1436 1437 1437 1437 1438 1439 1439 1439 1440 1441 1441 1442 1443 1443 1443 1444 1444 1444 1444 1444 1444 1444 1445 1444 1444 1444 1443 1443 1443 1442 1441 1441 1440
1419 1418 1418 1418 1418 1418 1418 1418 1418 1418 1418 1418 1418 1418 1418 1419 1419 1419 1420 1420 1421 1423 1424 1425 1427 1428 1429 1430 1431 1432 1432 1433 1434 1434 1435 1435 1436 1436 1437 1437 1437 1438 1439 1439 1439 1440 1440 1441 1442 1442 1443 1443 1443 1443 1443 1444 1444 1444 1444 1444 1444 1444 1444 1443 1443 1442 1441 1440 1440
1418 1418 1417 1417 1417 1417 1417 1417 1417 1417 1417 1418 1418 1418 1418 1418 1419 1419 1419 1420 1421 1422 1423 1424 1426 1427 1428 1429 1430 1431 1431 1432 1433 1434 1434 1434 1435 1435 1436 1436 1437 1437 1438 1438 1438 1439 1440 1440 1441 1441 1442 1442 1442 1443 1443 1443 1443 1443 1444 1444 1444 1444 1444 1444 1443 1442 1442 1441 1441
1418 1417 1417 1416 1416 1416 1416 1416 1416 1416 1417 1417 1417 1418 1418 1418 1418 1418 1419 1419 1420 1421 1422 1424 1425 1426 1427 1428 1429 1430 1430 1431 1432 1433 1433 1434 1434 1434 1435 1435 1436 1437 1438 1437 1438 1439 1439 1440 1440 1441 1441 1442 1442 1442 1442 1442 1443 1443 1443 1443 1444 1444 1444 1444 1443 1443 1443 1443 1442
1417 1417 1416 1416 1415 1415 1415 1415 1415 1416 1416 1416 1417 1417 1417 1418 1418 1418 1418 1419 1419 1421 1422 1423 1424 1425 1426 1427 1428 1429 1429 1430 1431 1432 1432 1433 1434 1434 1434 1435 1436 1437 1437 1438 1438 1439 1439 1440 1440 1441 1441 1441 1441 1442 1442 1442 1442 1443 1443 1443 1443 1443 1443 1443 1443 1443 1443 1443 1443
1417 1416 1415 1415 1415 1414 1414 1414 1415 1415 1416 1416 1416 1417 1417 1417 1417 1418 1418 1418 1419 1420 1421 1422 1423 1424 1425 1426 1427 1428 1429 1429 1430 1431 1432 1432 1433 1433 1434 1434 1435 1436 1437 1438 1438 1439 1439 1440 1440 1441 1441 1441 1441 1441 1441 1442 1442 1442 1442 1443 1443 1443 1443 1443 1443 1443 1443 1444 1444
1416 1415 1415 1414 1414 1414 1414 1414 1414 1415 1415 1416 1416 1416 1416 1417 1417 1417 1417 1418 1419 1419 1420 1421 1423 1424 1424 1425 1426 1427 1428 1429 1430 1430 1431 1432 1432 1433 1433 1434 1434 1435 1436 1437 1437 1438 1439 1440 1441 1441 1441 1441 1441 1441 1441 1441 1441 1442 1442 1442 1442 1442 1442 1442 1442 1442 1443 1443 1444
1416 1415 1414 1414 1414 1414 1414 1414 1414 1415 1415 1415 1415 1416 1416 1416 1416 1417 1417 1418 1418 1419 1420 1421 1422 1423 1424 1425 1426 1427 1428 1428 1429 1430 1430 1431 1432 1432 1433 1433 1433 1434 1435 1436 1437 1437 1438 1439 1440 1441 1442 1442 1441 1441 1441 1441 1441 1441 1441 1442 1442 1442 1442 1442 1442 1442 1443 1443 1444
1416 1415 1414 1414 1413 1413 1414 1414 1414 1414 1415 1415 1415 1415 1415 1416 1416 1416 1417 1417 1418 1419 1419 1420 1421 1422 1423 1424 1425 1426 1427 1428 1428 1429 1430 1430 1431 1431 1432 1432 1433 1433 1434 1435 1436 1437 1438 1439 1440 1441 1441 1441 1441 1441 1441 1441 1441 1441 1441 1441 1441 1441 1441 1441 1441 1442 1442 1443 1443
1416 1415 1414 1414 1413 1413 1413 1414 1414 1414 1414 1415 1415 1415 1415 1415 1416 1416 1417 1417 1418 1418 1419 1420 1421 1422 1422 1423 1424 1425 1426 1427 1427 1428 1429 1429 1430 1431 1431 1431 1432 1432 1433 1434 1435 1436 1437 1438 1439 1440 1441 1441 1441 1441 1441 1441 1441 1441 1440 1441 1440 1440 1440 1440 1440 1441 1441 1442 1443
1416 1415 1414 1414 1414 1413 1413 1414 1414 1414 1414 1414 1415 1415 1415 1415 1416 1416 1417 1417 1418 1418 1419 1419 1420 1421 1422 1423 1424 1424 1425 1426 1427 1427 1428 1429 1429 1430 1430 1431 1431 1431 1432 1433 1434 1435 1436 1437 1438 1439 1440 1441 1441 1441 1442 1442 1441 1441 1441 1440 1440 1440 1440 1440 1440 1440 1441 1441 1442
1416 1416 1415 1415 1414 1414 1414 1414 1414 1414 1414 1414 1414 1415 1415 1415 1416 1416 1416 1417 1417 1418 1419 1419 1420 1421 1422 1422 1423 1424 1424 1425 1426 1426 1427 1428 1428 1429 1429 1430 1430 1430 1431 1432 1432 1433 1434 1436 1437 1438 1439 1440 1441 1441 1442 1442 1442 1442 1441 1440 1440 1440 1439 1439 1439 1440 1440 1441 1441
1416 1416 1416 1415 1415 1415 1414 1414 1414 1415 1415 1415 1415 1415 1415 1415 1415 1416 1416 1417 1417 1418 1419 1419 1420 1420 1421 1422 1423 1423 1424 1424 1425 1426 1426 1427 1428 1428 1429 1429 1429 1429 1430 1431 1431 1432 1433 1434 1435 1437 1438 1439 1440 1441 1441 1441 1442 1442 1441 1441 1440 1440 1440 1439 1439 1440 1440 1440 1441
1417 1416 1416 1416 1416 1416 1415 1415 1415 1415 1415 1415 1415 1415 1415 1415 1416 1416 1416 1417 1417 1418 1418 1419 1419 1420 1421 1422 1422 1423 1424 1424 1425 1425 1426 1427 1427 1427 1428 1428 1429 1429 1429 1429 1430 1431 1431 1432 1434 1435 1437 1439 1440 1440 1441 1441 1441 1441 1441 1441 1440 1440 1440 1439 1439 1440 1440 1440 1441
1417 1417 1417 1416 1416 1416 1416 1416 1416 1416 1416 1416 1416 1416 1416 1416 1416 1416 1417 1417 1417 1418 1418 1419 1419 1420 1421 1421 1422 1423 1423 1424 1424 1425 1426 1426 1427 1427 1427 1428 1428 1428 1429 1429 1429 1430 1430 1431 1433 1434 1435 1437 1439 1439 1440 1440 1440 1440 1440 1440 1440 1440 1439 1439 1439 1439 1440 1440 1440
1417 1417 1417 1417 1417 1417 1417 1417 1417 1417 1417 1417 1417 1417 1417 1417 1417 1417 1417 1417 1418 1418 1419 1419 1419 1420 1420 1421 1422 1422 1423 1424 1424 1425 1425 1426 1426 1427 1427 1427 1428 1428 1428 1429 1429 1429 1430 1431 1432 1433 1434 1436 1437 1438 1439 1439 1439 1440 1440 1439 1439 1439 1439 1439 1439 1439 1439 1440 1440
1416 1417 1417 1417 1417 1417 1417 1417 1417 1417 1417 1417 1417 1417 1417 1417 1417 1417 1418 1418 1418 1418 1419 1419 1419 1420 1420 1421 1421 1422 1423 1423 1424 1424 1425 1425 1426 1426 1427 1427 1427 1428 1428 1429 1429 1429 1430 1430 1431 1432 1433 1434 1435 1437 1437 1438 1438 1439 1439 1439 1439 1439 1439 1439 1439 1439 1439 1439 1440
1416 1417 1417 1417 1417 1417 1417 1417 1417 1417 1418 1417 1418 1418 1418 1418 1418 1418 1418 1418 1418 1419 1419 1419 1419 1420 1420 1421 1421 1422 1422 1423 1424 1424 1424 1425 1425 1426 1426 1427 1427 1427 1428 1428 1429 1429 1430 1430 1431 1432 1432 1433 1434 1435 1436 1436 1437 1437 1438 1438 1438 1438 1438 1438 1438 1438 1439 1439 1439
1416 1416 1417 1417 1417 1417 1417 1417 1418 1418 1418 1418 1418 1418 1418 1418 1418 1418 1418 1418 1419 1419 1419 1419 1420 1420 1420 1421 1421 1422 1422 1423 1423 1424 1424 1424 1425 1425 1426 1426 1426 1427 1427 1428 1428 1429 1429 1430 1430 1431 1432 1432 1433 1433 1434 1435 1435 1436 1436 1437 1437 1437 1437 1437 1437 1437 1438 1438 1439
1415 1416 1416 1417 1417 1417 1417 1417 1418 1418 1418 1418 1418 1418 1418 1418 1418 1419 1419 1419 1419 1419 1419 1419 1420 1420 1420 1421 1421 1422 1422 1422 1423 1423 1424 1424 1424 1425 1425 1425 1426 1426 1427 1427 1427 1428 1429 1429 1429 1430 1430 1431 1431 1432 1433 1433 1434 1434 1435 1435 1436 1436 1436 1436 1436 1437 1437 1438 1438
1415 1415 1416 1416 1417 1417 1417 1417 1418 1418 1418 1418 1419 1419 1419 1419 1419 1419 1419 1419 1419 1419 1419 1420 1420 1420 1421 1421 1421 1422 1422 1422 1423 1423 1423 1424 1424 1424 1424 1425 1425 1426 1426 1426 1427 1427 1428 1428 1429 1429 1429 1430 1430 1431 1431 1432 1432 1433 1434 1434 1435 1435 1435 1436 1436 1436 1436 1437 1437
1415 1415 1415 1416 1416 1417 1417 1417 1418 1418 1418 1418 1419 1419 1419 1419 1419 1419 1419 1419 1419 1419 1420 1420 1420 1421 1421 1421 1421 1422 1422 1422 1423 1423 1423 1423 1424 1424 1424 1425 1425 1425 1426 1426 1426 1427 1427 1428 1428 1428 1429 1429 1429 1430 1430 1431 1432 1432 1433 1434 1434 1435 1435 1435 1436 1436 1436 1436 1437
1414 1415 1415 1415 1416 1416 1416 1417 1417 1418 1418 1418 1419 1419 1419 1419 1419 1419 1419 1419 1419 1420 1420 1420 1421 1421 1421 1422 1422 1422 1422 1423 1423 1423 1423 1424 1424 1424 1424 1425 1425 1425 1426 1426 1426 1427 1427 1427 1428 1428 1428 1429 1429 1429 1430 1431 1431 1432 1432 1433 1434 1434 1435 1435 1435 1436 1436 1436 1437
1414 1415 1415 1415 1416 1416 1416 1416 1417 1417 1418 1418 1418 1419 1419 1419 1419 1419 1419 1419 1420 1420 1420 1421 1421 1421 1422 1422 1422 1422 1423 1423 1423 1424 1424 1424 1424 1424 1424 1425 1425 1425 1426 1426 1426 1426 1427 1427 1427 1428 1428 1429 1429 1429 1430 1430 1431 1431 1432 1432 1433 1434 1434 1434 1435 1435 1436 1436 1437
1414 1414 1415 1415 1415 1416 1416 1416 1417 1417 1417 1418 1418 1418 1419 1419 1419 1419 1419 1419 1420 1420 1421 1421 1421 1422 1422 1422 1422 1423 1423 1423 1423 1424 1424 1424 1424 1424 1424 1425 1425 1425 1425 1426 1426 1426 1426 1427 1427 1428 1428 1429 1429 1429 1430 1430 1431 1431 1431 1432 1432 1433 1434 1434 1434 1435 1435 1436 1436